Location: Star Camp Observatory
(34.2910°N, 116.3827°W)
Time: 20:26:41
(UTC-07:00)

ISS - Visible Passes

Search period start: 18 March 2019 00:00
Search period end: 28 March 2019 00:00
Orbit: 406 x 411 km, 51.6° (Epoch: 19 March)

Date Brightness Start Highest point End Pass type
(mag) Time Alt. Az. Time Alt. Az. Time Alt. Az.
18 Mar -0.5 04:31:52 11° ESE 04:31:52 11° ESE 04:31:57 10° ESE visible
18 Mar -2.0 06:04:41 15° WSW 06:05:10 15° SW 06:07:10 10° SSW visible
19 Mar -1.2 05:16:59 12° SSE 05:16:59 12° SSE 05:17:16 10° SSE visible
19 Mar -3.4 20:12:49 10° SSW 20:15:46 42° SE 20:15:46 42° SE visible
20 Mar -2.3 19:22:32 10° S 19:25:04 20° SE 19:27:35 10° ENE visible
20 Mar -1.7 20:58:33 10° W 21:00:49 27° WNW 21:00:49 27° WNW visible
21 Mar -3.3 20:07:08 10° WSW 20:10:23 57° NW 20:12:50 16° NE visible
22 Mar -0.9 20:54:20 10° WNW 20:56:11 14° NNW 20:57:24 12° N visible
23 Mar -1.4 20:02:15 10° W 20:04:55 22° NW 20:07:36 10° NNE visible
25 Mar -0.8 19:58:27 10° NW 19:59:37 11° NNW 20:00:47 10° N visible
